Monticello, KY

1:58 AM EST on November 20, 2017 (GMT -0500)
Wayne County

Weather History for KEKQ - May, 2013

Change the Weather History Date:

Saturday, May 4, 2013

  Actual Average Record
Temperature  
Mean Temperature 56 °F -  
Max Temperature 61 °F 72 °F 87 °F (1959)
Min Temperature 51 °F 45 °F 29 °F (1971)
Degree Days  
Heating Degree Days 9    
Growing Degree Days 6 (Base 50)    
Moisture  
Dew Point 51 °F    
Average Humidity 93    
Maximum Humidity 100    
Minimum Humidity 55    
Precipitation  
Precipitation 1.11 in - - ()
Sea Level Pressure  
Sea Level Pressure 29.97 in    
Wind  
Wind Speed 5 mph (NE)    
Max Wind Speed 12 mph    
Max Gust Speed 18 mph    
Visibility 4 miles    
Events Rain    
Averages and records for this station are not official NWS values.
T = Trace of Precipitation, MM = Missing Value Source: NWS Daily Summary

Daily Weather History Graph

Daily Weather History Graph

Search for Another Location

Airport or City:

Trip Planner

Search our weather history database for the weather conditions in past years. The results will help you decide how hot, cold, wet, or windy it might be!

Date:

Astronomy

May. 04, 2013 Rise Set
Actual Time 5:41 AM CDT 7:31 PM CDT
Civil Twilight 5:13 AM CDT 7:59 PM CDT
Nautical Twilight 4:39 AM CDT 8:33 PM CDT
Astronomical Twilight 4:03 AM CDT 9:09 PM CDT
Moon 2:31 AM CDT (5/4) 2:35 PM CDT (5/4)
Length of Visible Light 14h 45m
Length of Day
13h 49m
Waning Crescent, 27% of the Moon is Illuminated
May 4
Waning Crescent
May 9
New
May 17
First Quarter
May 24
Full
May 31
Last Quarter

Hourly Weather History & Observations

Time (CDT) Temp. Dew Point Humidity Pressure Visibility Wind Dir Wind Speed Gust Speed Precip Events Conditions
12:56 AM 61.9 °F 47.8 °F 60% 29.97 in 10.0 mi ESE 5.8 mph - N/A   Clear
1:56 AM 61.0 °F 47.8 °F 62% 29.95 in 10.0 mi East 6.9 mph - N/A   Scattered Clouds
2:56 AM 61.9 °F 46.9 °F 58% 29.94 in 10.0 mi ESE 8.1 mph - N/A   Clear
3:56 AM 61.0 °F 46.9 °F 60% 29.91 in 10.0 mi East 10.4 mph 16.1 mph N/A   Overcast
4:56 AM 61.0 °F 46.9 °F 60% 29.92 in 10.0 mi ESE 10.4 mph - N/A   Mostly Cloudy
5:56 AM 59.9 °F 45.9 °F 60% 29.94 in 10.0 mi ESE 11.5 mph 16.1 mph N/A   Mostly Cloudy
6:56 AM 59.9 °F 43.9 °F 55% 29.95 in 10.0 mi East 9.2 mph - N/A   Scattered Clouds
7:56 AM 55.9 °F 45.9 °F 69% 29.96 in 5.0 mi ESE 9.2 mph - 0.01 in Rain Light Rain
8:56 AM 54.9 °F 45.9 °F 72% 29.97 in 5.0 mi ESE 6.9 mph - 0.01 in Rain Light Rain
9:56 AM 52.9 °F 45.9 °F 77% 29.96 in 7.0 mi East 9.2 mph - 0.01 in Rain Light Rain
10:32 AM 53.6 °F 48.2 °F 82% 29.96 in 2.5 mi ENE 4.6 mph - 0.05 in Rain Rain
10:56 AM 52.0 °F 48.9 °F 89% 29.98 in 2.0 mi Calm Calm - 0.09 in Rain Rain
11:04 AM 51.8 °F 50.0 °F 94% 29.97 in 2.0 mi Calm Calm - 0.01 in Rain Light Rain
11:17 AM 51.8 °F 50.0 °F 94% 29.97 in 3.0 mi Calm Calm - 0.03 in Rain Light Rain
11:56 AM 52.9 °F 50.0 °F 90% 29.98 in 10.0 mi Calm Calm - 0.05 in Rain Light Rain
12:47 PM 53.6 °F 53.6 °F 100% 29.99 in 2.0 mi WNW 4.6 mph - 0.01 in Rain Rain
12:56 PM 52.9 °F 52.9 °F 100% 30.00 in 1.5 mi NW 3.5 mph - 0.03 in Rain Rain
1:04 PM 53.6 °F 53.6 °F 100% 29.99 in 1.2 mi North 3.5 mph - 0.03 in Rain Rain
1:16 PM 53.6 °F 51.8 °F 94% 29.99 in 1.8 mi NNW 3.5 mph - 0.05 in Rain Rain
1:36 PM 53.6 °F 53.6 °F 100% 29.98 in 1.0 mi North 4.6 mph - 0.09 in Rain Heavy Rain
1:47 PM 53.6 °F 53.6 °F 100% 29.98 in 1.5 mi NNE 5.8 mph - 0.12 in Rain Rain
1:56 PM 52.9 °F 52.9 °F 100% 29.99 in 2.0 mi North 5.8 mph - 0.13 in Rain Rain
2:03 PM 53.6 °F 53.6 °F 100% 29.98 in 4.0 mi North 6.9 mph - 0.00 in Rain Light Rain
2:39 PM 53.6 °F 53.6 °F 100% 29.98 in 2.0 mi NW 3.5 mph - 0.02 in Rain Rain
2:56 PM 52.9 °F 52.9 °F 100% 29.99 in 1.8 mi WNW 4.6 mph - 0.06 in Rain Rain
3:02 PM 53.6 °F 53.6 °F 100% 29.97 in 2.0 mi NW 6.9 mph - 0.01 in Rain Rain
3:13 PM 53.6 °F 53.6 °F 100% 29.97 in 2.5 mi North 5.8 mph - 0.03 in Rain Light Rain
3:20 PM 53.6 °F 53.6 °F 100% 29.96 in 3.0 mi NNE 6.9 mph - 0.04 in Rain Light Rain
3:41 PM 51.8 °F 51.8 °F 100% 29.97 in 1.8 mi NNE 4.6 mph - 0.05 in Rain Rain
3:56 PM 52.0 °F 52.0 °F 100% 29.99 in 1.5 mi Calm Calm - 0.09 in Rain Rain
4:12 PM 51.8 °F 51.8 °F 100% 29.98 in 1.2 mi Calm Calm - 0.07 in Rain Heavy Rain
4:19 PM 51.8 °F 51.8 °F 100% 29.98 in 1.0 mi NNE 3.5 mph - 0.10 in Rain Heavy Rain
4:22 PM 51.8 °F 51.8 °F 100% 29.97 in 0.8 mi NNE 4.6 mph - 0.12 in Rain Heavy Rain
4:36 PM 51.8 °F 51.8 °F 100% 29.96 in 1.2 mi NNE 5.8 mph - 0.17 in Rain Rain
4:41 PM 51.8 °F 51.8 °F 100% 29.96 in 1.5 mi NNE 4.6 mph - 0.18 in Rain Rain
4:49 PM 51.8 °F 51.8 °F 100% 29.96 in 1.8 mi NNE 4.6 mph - 0.20 in Rain Rain
4:56 PM 52.0 °F 52.0 °F 100% 29.97 in 2.0 mi NE 3.5 mph - 0.21 in Rain Rain
5:05 PM 51.8 °F 51.8 °F 100% 29.96 in 2.5 mi Calm Calm - 0.02 in Rain Rain
5:29 PM 51.8 °F 51.8 °F 100% 29.97 in 1.5 mi ENE 3.5 mph - 0.07 in Rain Rain
5:56 PM 52.0 °F 52.0 °F 100% 29.98 in 2.5 mi Calm Calm - 0.12 in Rain Light Rain
6:15 PM 53.6 °F 53.6 °F 100% 29.96 in 1.5 mi NNE 3.5 mph - 0.02 in Rain Rain
6:20 PM 53.6 °F 53.6 °F 100% 29.97 in 2.0 mi NE 3.5 mph - 0.03 in Rain Rain
6:27 PM 53.6 °F 53.6 °F 100% 29.97 in 2.5 mi ENE 3.5 mph - 0.04 in Rain Light Rain
6:36 PM 53.6 °F 53.6 °F 100% 29.97 in 3.0 mi East 3.5 mph - 0.05 in Rain Light Rain
6:41 PM 53.6 °F 53.6 °F 100% 29.97 in 2.5 mi ENE 3.5 mph - 0.05 in Rain Light Rain
6:56 PM 52.9 °F 52.9 °F 100% 29.99 in 2.0 mi Calm Calm - 0.08 in Rain Rain
7:06 PM 53.6 °F 53.6 °F 100% 29.97 in 1.8 mi Calm Calm - 0.02 in Rain Rain
7:14 PM 53.6 °F 53.6 °F 100% 29.98 in 2.5 mi Calm Calm - 0.02 in Rain Light Rain
7:23 PM 53.6 °F 53.6 °F 100% 29.98 in 3.0 mi Calm Calm - 0.03 in Rain Light Rain
7:30 PM 53.6 °F 53.6 °F 100% 29.98 in 2.5 mi ENE 3.5 mph - 0.04 in Rain Rain
7:56 PM 52.9 °F 52.9 °F 100% 29.99 in 4.0 mi NE 5.8 mph - 0.07 in Rain Light Rain
8:56 PM 52.9 °F 52.9 °F 100% 29.99 in 10.0 mi NE 8.1 mph - 0.03 in   Overcast
9:09 PM 53.6 °F 53.6 °F 100% 29.97 in 10.0 mi NE 6.9 mph - 0.00 in   Overcast
9:56 PM 52.9 °F 52.9 °F 100% 29.99 in 3.0 mi NE 6.9 mph - 0.02 in Rain Rain
10:56 PM 54.0 °F 54.0 °F 100% 29.96 in 2.5 mi ENE 8.1 mph - 0.08 in Rain Rain
11:01 PM 53.6 °F 53.6 °F 100% 29.95 in 3.0 mi ENE 9.2 mph - 0.01 in Rain Rain
11:56 PM 54.0 °F 54.0 °F 100% 29.95 in 9.0 mi NE 9.2 mph 18.4 mph 0.02 in Rain Light Rain